Date,TemperatureHighF,TemperatureAvgF,TemperatureLowF,DewpointHighF,DewpointAvgF,DewpointLowF,HumidityHigh,HumidityAvg,HumidityLow,PressureMaxIn,PressureMinIn,WindSpeedMaxMPH,WindSpeedAvgMPH,GustSpeedMaxMPH,PrecipitationSumIn
2014-1-1,17.5,10.3,3.4,14.6,6.2,-5.3,91,83,65,30.41,30.29,14,4,14,0.00
2014-1-2,15.1,9.6,1.0,10.7,5.0,-5.4,90,82,69,30.46,30.25,14,4,14,0.00
2014-1-3,19.2,7.6,-5.4,12.7,1.3,-9.3,83,75,64,30.47,29.88,26,4,26,0.00
2014-1-4,29.1,25.2,18.9,26.3,20.3,12.6,93,82,72,30.08,29.76,20,4,20,0.00
2014-1-5,20.4,11.5,-4.9,13.1,3.2,-14.1,73,69,59,30.17,30.05,21,7,21,0.00
2014-1-6,-5.1,-11.1,-13.2,-14.1,-19.0,-22.9,73,67,59,30.25,30.05,20,7,20,0.00
2014-1-7,1.1,-10.9,-14.5,-7.4,-17.4,-20.9,81,72,59,30.38,30.24,13,3,14,0.00
2014-1-8,8.9,0.9,-6.7,0.5,-5.6,-10.7,85,74,57,30.59,30.36,11,1,11,0.00
2014-1-9,23.6,10.4,-7.0,21.5,6.5,-10.6,94,84,69,30.60,30.18,11,2,11,0.00
2014-1-10,38.6,30.5,23.6,37.9,29.4,21.4,98,96,91,30.19,29.48,16,3,16,0.51
2014-1-11,38.1,33.3,29.9,37.3,30.7,25.7,98,90,83,29.74,29.40,19,4,20,0.02
2014-1-12,40.7,29.8,25.4,33.8,26.1,23.5,94,86,65,29.81,29.57,20,4,20,0.00
2014-1-13,43.6,36.0,26.6,34.4,30.7,21.3,90,81,66,29.74,29.51,16,2,17,0.00
2014-1-14,34.2,26.4,18.3,31.7,23.0,15.6,94,87,75,29.87,29.53,22,5,22,0.01
2014-1-15,18.3,14.2,11.0,15.6,9.0,5.7,89,79,71,30.08,29.80,17,4,17,0.00
2014-1-16,32.1,25.6,16.0,30.6,21.6,10.6,94,84,71,29.80,29.47,19,4,19,0.01
2014-1-17,18.8,14.6,8.4,15.8,9.6,2.8,88,80,72,29.96,29.68,14,4,17,0.00
2014-1-18,21.0,14.7,7.6,18.0,10.9,3.8,91,85,77,29.94,29.82,9,1,9,0.00
2014-1-19,32.2,22.8,10.4,27.3,17.8,7.5,90,81,69,29.84,29.51,14,4,14,0.00
2014-1-20,32.9,22.3,5.9,27.0,18.5,-2.7,91,85,65,30.20,29.60,21,5,24,0.01
2014-1-21,7.7,2.6,-1.5,-3.2,-5.6,-7.5,80,68,56,30.38,30.20,22,4,22,0.00
2014-1-22,11.4,4.1,-1.2,5.8,-2.2,-9.2,84,74,65,30.23,29.91,18,4,18,0.00
2014-1-23,8.8,2.3,-4.4,-0.5,-5.4,-11.5,76,69,63,30.61,30.20,21,5,22,0.00
2014-1-24,27.4,11.1,-7.3,25.4,4.1,-13.5,92,73,58,30.52,29.41,19,5,19,0.00
2014-1-25,29.6,14.8,4.6,27.6,3.5,-6.2,93,61,44,29.87,29.40,20,6,23,0.00
2014-1-26,23.1,13.2,4.5,18.7,7.9,-4.7,88,79,63,29.81,29.39,24,4,24,0.00
2014-1-27,5.3,-3.3,-9.0,-2.0,-12.9,-17.3,73,62,54,30.44,29.81,20,6,22,0.00
2014-1-28,1.9,-4.8,-12.7,-8.2,-13.2,-18.5,76,66,57,30.45,30.23,14,4,15,0.00
2014-1-29,22.5,10.3,-1.3,8.7,-0.6,-9.0,73,61,47,30.24,29.95,16,4,16,0.00
2014-1-30,30.0,25.5,20.4,26.7,17.1,8.0,91,71,54,29.95,29.62,24,5,24,0.00
2014-1-31,20.4,14.5,8.9,15.2,6.2,0.5,81,70,58,30.19,29.93,12,2,15,0.00